Hourly Data Report for April 04, 2018

MIRAMICHI RCS
NEW BRUNSWICK
Current Station Operator: ECCC - MSC

47°00'34.000" N
65°27'54.000" W
33.00 m
8100989
71744
ACQ

Download Data

Hourly Data (April 2018)
Hourly Data Report for April 4, 2018
TIME
LST
Temp Definition
°C
Dew Point Definition
°C
Rel Hum Definition
%
Precip. Amount Definition
mm

Wind Dir Definition
10's deg

Wind Spd Definition
km/h
Visibility Definition
km
Stn Press Definition
kPa
Hmdx Definition


Wind Chill Definition


Weather Definition


00:00 1.6 -2.5 74 0.0 21 12   101.29     LegendNANA
01:00 1.4 -2.2 77 0.0 22 12   101.32     LegendNANA
02:00 1.2 -2.1 78 0.0 23 10   101.31     LegendNANA
03:00 1.1 -2.4 77 0.0 21 4   101.22     LegendNANA
04:00 0.6 -2.2 82 0.0 15 7   101.12     LegendNANA
05:00 0.5 -1.7 85 0.0 12 9   101.02     LegendNANA
06:00 -0.2 -1.0 94 0.2 13 10   100.99   -4 LegendNANA
07:00 -0.4 -1.1 95 0.6 9 12   100.94   -4 LegendNANA
08:00 -0.3 -0.9 95 1.2 7 15   100.85   -5 LegendNANA
09:00 -0.1 -0.7 95 1.1 7 18   100.74   -5 LegendNANA
10:00 0.2 -0.5 95 0.7 7 22   100.52     LegendNANA
11:00 0.1 -0.5 95 0.5 6 18   100.39     LegendNANA
12:00 0.2 -0.4 96 1.0 7 23   100.14     LegendNANA
13:00 0.0 -0.5 96 1.9 7 26   99.92   -6 LegendNANA
14:00 -0.3 -0.8 97 3.2 6 22   99.92   -6 LegendNANA
15:00 -0.5 -1.0 97 2.3 6 24   99.65   -6 LegendNANA
16:00 -0.1 -0.5 97 3.5 8 28   99.34   -6 LegendNANA
17:00 -0.2 -0.6 97 3.4 6 17   99.26   -5 LegendNANA
18:00 -0.3 -0.8 97 1.5 6 17   99.02   -5 LegendNANA
19:00 -0.4 -0.9 97 1.8 5 7   98.97   -3 LegendNANA
20:00 -0.3 -0.9 96 0.8 4 5   98.85   -2 LegendNANA
21:00 -0.3 -0.9 95 0.0 3 2   98.81   -1 LegendNANA
22:00 -0.3 -0.9 95 1.2   0   98.65     LegendNANA
23:00 -0.2 -0.8 96 0.0   0   98.65     LegendNANA

Notes on Data Quality.

Legend

  • E = Estimated
  • M = Missing
  • NA = Not Available*
  • [empty] = Indicates an unobserved value
Date modified: